Other Public Products
Issued by NWS Charleston, SC

Current Version | Previous Version | Text Only | Print | Product List | Glossary Off
Versions: 1 2 3 4 5 6 7 8 9 10 11 12 13 14 15 16 17 18 19 20 21 22 23 24 25 26 27 28 29 30 31 32 33 34 35 36 37 38 39 40 41 42 43 44 45 46 47 48 49 50

273
FPUS82 KCHS 231712
OPUCHS

TEST...KCHS/KSAV Gateway Observations...TEST
National Weather Service Charleston SC
1200 PM EST TUE JAN 23 2018

NOTE: "fair" indicates few or no clouds below 12,000 feet with no
significant weather and/or obstructions to visibility.

SCZ050-WAZ558-NCZ071-TXZ119-213-PAZ071-DCZ001-FLZ074-172-MI076-
NYZ176-178-MAZ016-IL014-TNZ027-NJZ106-GAZ044-MD014-231800-

...Gateway Observations for Charleston International...

CITY           SKY/WX    TMP DP  RH WIND       PRES   REMARKS
Chas Airport   PTSUNNY   72  64  76 SW13      29.91F
Seattle        LGT RAIN  43  36  76 SE9       29.98F
Charlotte      FAIR      63  28  26 SW23G31   29.83F
Dallas DFW     FAIR      48  20  32 NW7       30.31R
Dallas Love    FAIR      48  20  32 N3        30.33R
Philladelphia  PTSUNNY   56  51  84 W9        29.60R
Wash National  PTSUNNY   65  57  75 N3        29.61F
Baltimore      PTSUNNY   62  54  74 W12       29.60F
Miami          PTSUNNY   82  71  69 S12G20    30.07F
Detroit        LGT RAIN  38  34  85 SW18      29.59R WCI  28
Newark         LGT RAIN  60  57  89 S16G22    29.55F
Laguardia      LGT RAIN  53  51  93 S16G25    29.56F
J F K          LGT RAIN  51  51 100 S25G33    29.60F FOG
Boston Logan   HVY RAIN  36  35  96 W6        29.72F VSB 1/2 WCI  31
Ft. Lauderdale PTSUNNY   78  72  81 S12       30.06F
Chicago O`Hare CLOUDY    30  24  78 NW16      29.82R WCI  19
Chicago Midway CLOUDY    32  27  81 NW12      29.82R WCI  23
Houston Bush   PTSUNNY   60  24  25 N13       30.31R
Houston Hobby  PTSUNNY   59  24  26 N13       30.30S
Nashville      CLOUDY    46  29  51 W9G18     30.03R
Atlanta        PTSUNNY   51  33  50 NW16      30.01F

$$

GAZ044-118-TXZ119-213-NCZ071-DCZ001-MDZ014-506-PAZ021-071-NJZ106-
NYZ176-178-MAZ106-OHZ011-021-055-MIZ076-KYZ091-ILZ014-INZ047-
MNZ060-ONZ431-231800-

...Gateway Observations for Savannah International...

CITY           SKY/WX    TMP DP  RH WIND       PRES   REMARKS
Savannah Arpt  PTSUNNY   75  60  59 W21G31    29.94F
Atlanta        PTSUNNY   51  33  50 NW16      30.01F
Charlotte      FAIR      63  28  26 SW23G31   29.83F
Dallas DFW     FAIR      48  20  32 NW7       30.31R
Houston Bush   PTSUNNY   60  24  25 N13       30.31R
Wash National  PTSUNNY   65  57  75 N3        29.61F
Wash Dulles    PTSUNNY   62  54  74 N6        29.62F
Baltimore      PTSUNNY   62  54  74 W12       29.60F
Philadelphia   PTSUNNY   56  51  84 W9        29.60R
Newark         LGT RAIN  60  57  89 S16G22    29.55F
Laguardia      LGT RAIN  53  51  93 S16G25    29.56F
J F K          LGT RAIN  51  51 100 S25G33    29.60F FOG
Boston         HVY RAIN  36  35  96 W6        29.72F VSB 1/2 WCI  31
Pittsburg      LGT RAIN  40  31  70 W17G33    29.68R WCI  31
Akron          CLOUDY    40  30  67 W22G33    29.66F WCI  30
Cleveland      CLOUDY    40  35  83 SW21G26   29.67S WCI  30
Cincinnati     CLOUDY    39  34  82 W14G26    29.85R WCI  31
Columbus       CLOUDY    38  33  81 W16G29    29.79R WCI  29
Detroit        LGT RAIN  38  34  85 SW18      29.59R WCI  28
Chicago O`Hare CLOUDY    30  24  78 NW16      29.82R WCI  19
Minneapolis    FAIR      20  13  74 N8        30.05R WCI  10
Indianapolis   DRIZZLE   35  34  96 W16       29.84R FOG     WCI  25
Toronto Canada PTSUNNY   43  41  93 W23       29.46F

$$




USA.gov is the U.S. government's official web portal to all federal, state and local government web resources and services.